Hinesville, GA

1:14 AM EDT on August 26, 2016 (GMT -0400)
Wright Army Air Field

Weather History for KLHW - July, 2013

Change the Weather History Date:

Tuesday, July 16, 2013

  Actual Average Record
Temperature  
Mean Temperature 81 °F -  
Max Temperature 89 °F 93 °F 103 °F (1981)
Min Temperature 73 °F 72 °F 33 °F (1997)
Cooling Degree Days 16    
Growing Degree Days 31 (Base 50)    
Moisture  
Dew Point 76 °F    
Average Humidity 88    
Maximum Humidity 100    
Minimum Humidity 65    
Precipitation  
Precipitation 0.00 in - - ()
Sea Level Pressure  
Sea Level Pressure 30.23 in    
Wind  
Wind Speed 4 mph (NE)    
Max Wind Speed 13 mph    
Max Gust Speed 18 mph    
Visibility 10 miles    
Events Rain    
Averages and records for this station are not official NWS values.
T = Trace of Precipitation, MM = Missing Value Source: NWS Daily Summary

Daily Weather History Graph

Daily Weather History Graph

Search for Another Location

Airport or City:

Trip Planner

Search our weather history database for the weather conditions in past years. The results will help you decide how hot, cold, wet, or windy it might be!

Date:

Astronomy

Jul. 16, 2013 Rise Set
Actual Time 6:31 AM EDT 8:32 PM EDT
Civil Twilight 6:04 AM EDT 9:00 PM EDT
Nautical Twilight 5:30 AM EDT 9:33 PM EDT
Astronomical Twilight 4:55 AM EDT 10:09 PM EDT
Moon 2:20 PM EDT (7/16) 12:50 AM EDT (7/16)
Length of Visible Light 14h 55m
Length of Day
14h 00m
First Quarter, 56% of the Moon is Illuminated
Jul 16
First Quarter
Jul 22
Full
Jul 29
Last Quarter
Aug 6
New
Aug 14
First Quarter

Hourly Weather History & Observations

Time (EDT) Temp. Heat Index Dew Point Humidity Pressure Visibility Wind Dir Wind Speed Gust Speed Precip Events Conditions
12:58 AM 75.2 °F - 75.2 °F 100% 30.23 in 10.0 mi NNE 2.3 mph - N/A   Clear
1:58 AM 75.0 °F - 75.0 °F 100% 30.22 in 10.0 mi NE 2.3 mph - N/A   Clear
2:58 AM 74.7 °F - 74.7 °F 100% 30.21 in 10.0 mi NNE 1.2 mph - N/A   Clear
3:58 AM 73.9 °F - 73.9 °F 100% 30.20 in 10.0 mi NE 4.6 mph - N/A   Clear
4:58 AM 74.1 °F - 74.1 °F 100% 30.21 in 10.0 mi Calm Calm - N/A   Clear
5:58 AM 73.4 °F - 73.4 °F 100% 30.22 in 10.0 mi North 4.6 mph - N/A   Partly Cloudy
6:23 AM 73.4 °F - 73.4 °F 100% 30.21 in 9.0 mi NNE 2.3 mph - N/A   Mostly Cloudy
6:28 AM 73.4 °F - 73.4 °F 100% 30.21 in 9.0 mi North 1.2 mph - N/A   Mostly Cloudy
6:33 AM 73.4 °F - 73.4 °F 100% 30.21 in 9.0 mi North 2.3 mph - N/A   Scattered Clouds
6:58 AM 73.8 °F - 73.8 °F 100% 30.23 in 9.0 mi NNE 2.3 mph - N/A   Clear
7:58 AM 75.2 °F - 75.2 °F 100% 30.25 in 10.0 mi NNE 5.8 mph - N/A   Partly Cloudy
8:58 AM 79.2 °F - 79.2 °F 100% 30.26 in 10.0 mi NNE 3.5 mph - N/A   Clear
9:23 AM 80.6 °F 89.3 °F 80.6 °F 100% 30.25 in 10.0 mi NNE 4.6 mph - N/A   Mostly Cloudy
9:38 AM 80.6 °F 89.3 °F 80.6 °F 100% 30.25 in 10.0 mi North 6.9 mph - N/A   Mostly Cloudy
9:53 AM 82.4 °F 92.4 °F 78.8 °F 89% 30.25 in 10.0 mi NE 8.1 mph - N/A   Mostly Cloudy
9:58 AM 82.0 °F 92.2 °F 79.5 °F 92% 30.26 in 10.0 mi Variable 5.8 mph - N/A   Mostly Cloudy
10:28 AM 84.2 °F 96.1 °F 78.8 °F 84% 30.25 in 10.0 mi Variable 5.8 mph - N/A   Scattered Clouds
10:33 AM 84.2 °F 96.1 °F 78.8 °F 84% 30.25 in 10.0 mi NE 8.1 mph - N/A   Mostly Cloudy
10:58 AM 84.2 °F 95.3 °F 78.1 °F 82% 30.26 in 10.0 mi NE 4.6 mph - N/A   Mostly Cloudy
11:08 AM 84.2 °F 96.1 °F 78.8 °F 84% 30.25 in 10.0 mi East 2.3 mph - N/A   Scattered Clouds
11:33 AM 86.0 °F 99.3 °F 78.8 °F 79% 30.24 in 10.0 mi ENE 5.8 mph - N/A   Mostly Cloudy
11:38 AM 84.2 °F 96.1 °F 78.8 °F 84% 30.25 in 10.0 mi NE 5.8 mph - N/A   Mostly Cloudy
11:53 AM 84.2 °F 96.1 °F 78.8 °F 84% 30.24 in 10.0 mi ENE 8.1 mph - N/A   Mostly Cloudy
11:58 AM 84.6 °F 96.0 °F 78.1 °F 81% 30.25 in 10.0 mi ENE 9.2 mph - N/A   Mostly Cloudy
12:03 PM 86.0 °F 99.3 °F 78.8 °F 79% 30.24 in 10.0 mi NE 11.5 mph - N/A   Scattered Clouds
12:58 PM 88.2 °F 99.5 °F 76.5 °F 68% 30.25 in 10.0 mi East 12.7 mph - N/A   Scattered Clouds
1:58 PM 89.1 °F 100.8 °F 76.3 °F 66% 30.23 in 10.0 mi ENE 11.5 mph - N/A   Mostly Cloudy
2:58 PM 88.5 °F 101.1 °F 77.0 °F 69% 30.22 in 10.0 mi East 9.2 mph 18.4 mph N/A   Scattered Clouds
3:58 PM 89.4 °F 101.1 °F 76.5 °F 65% 30.22 in 10.0 mi ESE 10.4 mph - N/A   Partly Cloudy
4:58 PM 88.3 °F 99.5 °F 76.1 °F 67% 30.21 in 10.0 mi East 11.5 mph - N/A   Partly Cloudy
5:58 PM 87.3 °F 96.3 °F 74.5 °F 66% 30.21 in 10.0 mi ESE 9.2 mph - N/A   Clear
6:58 PM 85.8 °F 94.6 °F 75.0 °F 70% 30.21 in 10.0 mi East 5.8 mph - N/A   Clear
7:58 PM 83.5 °F 91.2 °F 75.2 °F 76% 30.21 in 10.0 mi East 5.8 mph - N/A   Clear
8:30 PM 80.6 °F 86.2 °F 75.2 °F 84% 30.20 in 10.0 mi NE 1.2 mph - N/A Rain Light Rain
8:36 PM 80.6 °F 86.2 °F 75.2 °F 84% 30.21 in 10.0 mi Calm Calm - N/A   Clear
8:58 PM 79.7 °F - 75.6 °F 87% 30.22 in 10.0 mi Calm Calm - 0.00 in   Clear
9:58 PM 77.7 °F - 75.9 °F 94% 30.24 in 10.0 mi Calm Calm - N/A   Clear
10:58 PM 75.7 °F - 75.7 °F 100% 30.25 in 10.0 mi Calm Calm - N/A   Clear
11:08 PM 75.2 °F - 75.2 °F 100% 30.23 in 9.0 mi Calm Calm - N/A   Clear
11:13 PM 75.2 °F - 75.2 °F 100% 30.23 in 10.0 mi Calm Calm - N/A   Clear
11:58 PM 74.7 °F - 74.7 °F 100% 30.25 in 10.0 mi Calm Calm - N/A   Clear